Location: Colonia Mina de C?rbuni
(46.1667°N, 22.7167°E)
Time: 06:42:26
(UTC+00:00)

Vanguard 1 Rocket - Pass Details

Date: 16 April 2024
Orbit: 650 x 4220 km, 34.3° (Epoch: 26 May)

Event Time Altitude Azimuth Distance (km) Brightness Sun altitude
Rises 18:55:18 0° 240° (WSW) 3,492 10.8 -15.9°
Reaches altitude 10° 18:57:33 10° 231° (SW) 2,790 10.1 -16.3°
Maximum altitude 19:03:42 37° 165° (SSE) 2,081 8.8 -17.1°
Enters shadow 19:09:24 23° 117° (ESE) 3,356 9.6 -17.9°
